Reflectivity
-18 -20 -20 -20 -20 -20 -20 -20 -20 -20 -20 -20 -20 -20 -20 -20 -20 -4 -20 -20 -20 -20 -20 -3 -1 -20 -20 -20 -20 -3 -20 -20 -20 -14 -19 -20 35 -20 35 4 13 9 4 6 7 8 -2 -20 -9
4 -20 -20 -20 -20 -20 -20 -20 -20 -20 -20 -20 -20 -20 -20 -20 -20 -20 -20 -20 -20 -20 -20 -9 -20 -20 -20 -20 -20 -20 -16 -20 -20 -20 1 27 19 34 -15 -4 -14 10 3 8 13 7 10 14 10
3 -20 -20 -20 -20 -20 -20 -20 -20 -20 -20 -20 -20 -20 -20 -20 -20 -20 -20 -20 -20 -20 -3 -20 18 -20 -20 -20 -20 -20 -20 -20 -19 5 8 27 37 35 19 6 -13 -1 8 8 12 13 15 13 9
12 -20 -20 -20 -20 -20 -20 -20 -20 -20 -20 -20 -20 -20 -20 -20 -20 -20 -20 -20 -20 -3 4 -20 -20 6 -20 -19 -19 -20 -20 -20 30 15 -2 27 13 34 29 -10 -20 -20 -2 13 13 2 15 7 -14
15 -20 -20 -20 -20 -20 -20 11 -20 -20 -20 -20 -20 -20 -20 -20 -20 -20 -20 -20 -20 3 -20 -20 -20 1 -20 -20 -20 -20 -9 -20 -13 -20 -14 12 -7 31 34 25 18 -6 -16 -20 -20 7 15 5 -20
14 -20 -20 -20 -20 -20 -20 15 -20 -20 -20 -20 -20 -20 -20 -20 -13 -20 -20 -20 -20 10 -11 -19 -20 -20 -20 -20 -20 -20 -20 -20 -20 14 10 -14 -14 22 13 19 -11 -20 -20 -20 -12 0 15 -7 -20
-15 -20 -20 -20 -20 -20 -20 -20 -20 -20 -20 -20 -20 -20 -20 -2 -4 -19 -20 -19 -2 1 -20 -4 -20 -20 -20 -17 -9 -16 31 -20 25 11 -6 -12 6 12 -9 0 -14 -20 -20 -20 -20 -1 2 -20 -20
-17 -20 -20 -20 -20 -20 -20 -20 -20 -20 -20 -20 -20 -20 -20 2 -14 -3 10 12 -6 30 -0 0 -20 -20 -20 -20 -20 -19 30 -20 13 3 8 -20 -20 -20 -20 -20 7 -20 -20 -20 -11 1 -20 -20 -20
-17 21 -20 -20 -20 -20 -20 -20 -20 -20 -20 -20 -20 -20 -20 -14 -13 -7 9 -11 -6 29 9 -1 -19 -4 -20 -20 -20 -16 -11 -20 -20 -20 -20 -20 -17 -7 10 -20 -20 -20 -20 -20 -20 -20 -20 -20 -20
23 18 -20 -20 -20 -20 -20 -20 -20 -20 -20 -20 -20 -20 -20 6 4 -20 -0 -6 7 -2 16 -2 -20 -20 -20 -20 -11 -8 -15 -20 -20 -20 -4 -20 -14 -18 6 -20 -20 -20 -20 -20 -20 -20 -20 -20 -20
19 -5 -20 -20 -20 -20 -20 -20 -20 -20 -20 -20 -20 -20 -19 9 14 13 1 8 7 5 6 -4 -7 -20 -20 29 5 8 15 5 -16 -18 -20 -20 -20 -20 -20 -20 -20 -20 -20 -20 -20 -20 -20 -20 -20
16 -20 -20 -7 -20 -20 -20 -20 -20 -20 -20 -20 -20 -20 2 1 14 20 1 2 -15 -4 -15 34 -18 -20 -20 -13 -14 4 -16 -20 -20 -20 -20 -20 -20 -20 -20 -20 -3 -20 -20 -20 -20 -20 -20 -20 -20
15 -20 -14 17 -20 -20 -20 -20 -20 -20 -20 -20 -20 -20 6 -17 -10 -3 -11 6 11 -3 5 23 -20 -20 -18 -17 -1 -20 -20 -20 -20 -20 -19 -20 -20 -20 -20 -20 -20 -20 -20 -20 -20 -20 -20 -20 -20
-7 -20 8 7 -20 -20 -20 -20 -20 -20 -20 -20 -20 -20 -19 -1 11 -3 8 7 8 5 -5 0 -20 2 25 -3 -20 -20 -20 -20 -20 -20 -20 -20 -20 -20 -20 -20 -20 -20 -20 -20 -20 -20 -20 -20 -20
-18 23 -18 -18 -20 -20 -20 -20 -20 -20 -20 -20 -20 12 2 -12 -17 8 -9 4 6 5 5 -20 4 -14 -20 -2 -20 -20 -20 -20 -20 -20 -20 -20 -20 -20 -20 -20 -20 -20 -20 -20 -20 -20 -20 -20 -20
44 -2 8 -20 -20 -20 -20 -20 -20 -20 -20 -20 -19 -15 -17 -9 -7 11 -0 -20 -12 1 2 32 31 6 -20 -20 -20 -20 -20 -20 -20 -20 -20 -20 -20 -20 -20 -20 -20 -20 -20 -20 -20 -20 -20 -20 -20
34 30 -8 -20 -20 -20 -20 -20 -20 -20 -20 -20 -17 -2 8 2 7 17 7 -1 -15 1 -2 4 -8 -20 -20 -20 -20 -20 -20 -20 -20 -20 -20 -20 -20 -20 -20 -20 -20 -20 -20 -20 -20 -20 -20 -20 -20
12 2 -20 -20 -20 -20 -20 -20 -20 -20 -20 -20 19 -1 9 14 7 22 -1 -5 -16 -17 20 -20 -20 -20 -20 -20 -20 -20 -20 -20 -20 -20 -20 -20 -20 -20 -20 -20 -20 -20 -20 -20 -20 -20 -20 -20 -20
4 -20 -13 -20 -20 -20 -20 -18 -20 -20 -20 -20 -20 -4 31 0 1 25 5 0 -20 27 23 -20 -20 -20 -20 -20 -20 -20 -20 -20 -20 -20 -20 -20 -20 -20 -20 -20 -20 -20 -20 -20 -20 -20 -20 -20 -20
-20 -19 -19 -20 -20 -20 -16 -20 -20 -20 -20 -20 -20 -7 13 -5 11 -3 11 3 -20 7 6 -8 -20 -20 -20 -20 -20 -20 -20 -20 -20 -20 -20 -20 -20 -20 -20 -20 -20 -20 -20 -20 -20 -20 -20 -20 -20
6 -20 -20 -20 -20 -20 -15 21 -20 -20 -20 -20 -20 -4 -1 -4 -4 3 26 5 -15 -14 -20 15 -20 -20 -20 -20 -20 -20 -20 -20 -12 -18 -20 -20 -20 -20 -20 -20 -20 -20 -20 -20 -20 -20 -20 -20 -20
34 6 -20 -20 -20 12 -20 2 -20 -20 -20 -20 -20 -17 -19 -12 15 4 6 -20 -20 -20 -15 -20 -20 -20 -20 -20 -20 -20 -20 -11 -2 -12 -20 -20 -20 -20 -20 -20 -20 -20 -20 -20 -20 -20 -20 -20 -20
15 12 -20 -18 -20 -13 -20 5 -20 -20 -20 -20 -20 -20 -20 6 0 -13 0 4 -20 4 5 -20 -19 -20 -20 -20 -20 -20 -20 -20 -20 -20 -20 -20 -20 -20 -20 -20 -20 -20 -20 -20 -20 -20 -20 -20 -20
3 3 -20 2 -15 15 -20 -20 16 -20 -20 -20 -20 -20 -20 -20 -16 -20 -15 -20 -10 8 13 5 2 -20 -20 -20 -20 -20 -20 -17 9 -20 -20 -20 -12 -16 -20 -20 -20 -20 -20 -20 -20 -20 -20 -20 -20
-3 -1 6 19 25 -4 4 -1 7 -20 -20 -20 -20 -20 -20 -20 11 -20 -19 -16 3 -9 8 5 -15 -20 -20 -20 -20 -20 -9 1 -16 -20 -20 -20 -20 -20 -20 -20 -20 -20 -20 -20 -20 -20 -20 -20 -20
-18 0 -10 -16 -10 -20 -20 -20 -20 -1 -20 -20 -20 -20 -20 -20 -17 4 -18 -1 20 -20 -4 -19 -15 -9 -20 -20 -20 -20 -20 -20 -16 -20 -3 -14 -17 -13 -20 -20 -20 -20 4 1 2 -19 -20 -20 -20
-20 -20 -20 -20 -20 -20 -20 -20 -20 -20 -20 9 15 -9 -20 -20 7 -9 -20 -19 -4 -8 -20 -1 -13 -19 -20 -20 -20 -20 -20 -20 -20 -17 -20 -20 -20 -20 -20 -20 -20 -20 -20 -20 -20 9 -20 -16 -20
-20 -20 -20 -20 -20 -20 -20 -20 -20 -20 -20 -20 -20 -20 -20 -20 -20 -20 -14 -6 -20 -18 -8 -12 12 19 -20 -20 -20 -20 -20 -20 -20 -20 -20 -20 -9 6 -20 -20 -20 -20 -20 -20 -12 7 -16 -20 -20
-20 -20 -20 -20 -20 -20 -20 -20 -20 -20 -20 -20 -20 -20 -20 -20 -20 -20 -18 -20 -19 -18 -3 1 6 -3 -8 -6 -1 -20 -20 -20 -20 -13 -14 -20 -20 -20 -20 -20 -20 -2 -20 -20 -20 -20 -0 1 -0
-20 -20 -20 -20 -20 -20 -20 -20 -20 -20 -20 -20 -20 -20 -20 -20 -20 -20 -20 -17 -20 -20 -20 -20 1 -0 -7 -7 -20 -20 11 -20 15 -8 -20 -20 -20 -20 -20 -18 12 -19 -20 -20 -20 -20 -20 8 13
Wind_Speed
7 12 7 5 8 9 18 18 9 7 6 5 1 3 3 13 6 4 8 3 15 14 16 13 11 12 12 14 14 12 12 12 13 14 16 15 17 17 18 20 19 20 19 20 20 19 20 21 22
7 12 7 6 10 15 14 20 13 8 5 5 5 3 4 7 8 10 10 10 15 15 14 14 11 11 12 13 12 12 13 14 13 14 15 15 14 17 19 20 20 19 19 19 19 19 20 19 20
7 16 7 7 12 18 15 17 13 8 7 8 7 3 3 6 6 9 15 16 14 14 10 15 11 11 12 13 13 15 16 17 17 17 17 18 12 18 18 20 20 19 19 18 18 19 18 19 19
8 6 6 13 21 24 18 16 14 14 6 4 4 9 7 4 6 7 15 16 15 11 13 13 12 12 13 14 14 15 16 17 17 21 21 22 22 18 18 19 19 17 17 18 18 18 17 18 17
6 7 13 17 23 23 20 12 19 14 11 10 8 8 6 3 6 13 15 14 16 10 13 13 12 14 14 15 15 15 17 18 19 20 19 19 21 18 14 17 16 17 17 17 18 18 17 18 15
7 11 14 21 24 21 20 10 16 16 11 11 7 10 7 8 10 10 13 13 14 12 14 14 13 15 15 15 15 15 16 19 21 19 15 16 17 19 19 17 17 17 16 17 17 17 18 17 14
18 16 21 23 23 24 20 12 11 17 12 11 7 7 7 11 11 6 6 7 9 15 14 14 15 15 15 15 15 15 16 18 19 16 15 16 16 17 17 17 17 17 17 16 17 17 17 17 14
14 15 25 23 22 25 17 17 14 11 12 10 7 7 8 16 13 7 12 11 13 14 15 14 16 15 14 13 15 16 17 19 20 17 15 15 13 16 16 14 16 16 17 16 16 16 17 16 13
19 12 20 28 26 23 19 16 8 4 13 5 6 2 18 21 15 11 9 10 12 11 16 15 12 14 12 12 12 15 17 18 19 15 14 13 10 12 12 12 14 15 15 15 16 15 15 13 9
14 14 27 23 21 21 21 19 13 9 11 8 8 14 21 21 15 14 14 13 15 16 15 12 14 11 10 10 8 12 11 9 10 9 9 8 10 10 12 11 13 15 15 13 14 13 12 10 7
15 20 20 24 19 20 20 22 16 14 14 12 15 19 20 18 14 14 14 13 15 15 13 12 11 11 11 11 8 5 5 5 6 10 8 10 9 9 8 7 7 8 10 7 8 7 4 6 5
15 20 22 17 15 22 22 21 15 13 9 13 16 21 20 18 15 13 16 12 14 16 12 13 13 10 10 5 7 7 5 6 7 8 9 7 5 6 7 4 7 6 5 6 5 5 7 7 6
25 26 17 10 14 19 19 19 14 14 4 11 20 21 19 17 16 13 12 11 14 12 12 10 12 9 8 7 6 6 8 7 8 7 7 6 6 5 6 6 5 5 6 5 6 6 6 7 7
23 22 11 8 14 16 20 17 16 12 10 17 19 20 17 17 18 17 16 14 14 14 12 11 9 9 6 7 7 5 6 8 7 7 6 8 7 5 5 4 4 4 4 4 5 5 5 5 5
16 25 14 14 16 14 18 15 14 16 15 17 18 16 17 16 13 13 16 15 13 13 13 11 8 9 8 8 8 6 6 7 7 6 7 7 7 6 7 5 5 4 3 5 5 5 5 5 5
17 13 16 17 18 10 20 18 13 14 18 17 15 14 14 17 14 11 15 11 13 13 12 14 10 11 11 8 6 6 6 6 6 7 6 7 7 7 6 5 5 5 4 4 5 5 5 5 5
7 18 23 18 19 9 18 20 15 12 15 16 14 15 15 14 12 10 15 12 12 11 12 13 13 12 10 9 7 8 8 6 6 6 6 7 6 6 5 4 5 6 4 4 4 4 4 4 4
17 16 23 19 18 17 18 15 16 13 15 14 13 12 13 15 13 11 14 16 9 9 10 13 11 12 10 8 8 7 6 6 6 6 6 8 6 5 4 4 6 5 4 4 4 5 3 3 4
24 27 21 21 16 17 19 13 13 10 11 14 13 13 13 14 12 13 12 14 7 9 13 12 11 12 8 8 8 7 7 6 5 5 7 7 6 6 5 4 5 4 4 5 5 4 4 3 3
25 29 23 19 12 16 18 11 12 11 12 14 14 14 16 14 15 12 12 14 9 12 11 11 12 10 9 8 7 6 6 6 6 5 6 6 6 6 6 5 5 5 4 5 5 4 4 3 4
14 28 23 19 17 15 14 10 9 9 9 11 14 12 12 14 17 16 15 15 11 13 11 11 13 12 11 9 7 5 5 5 5 6 5 6 7 7 6 6 5 5 4 4 5 5 6 4 4
10 21 21 19 19 15 15 11 13 13 13 11 12 14 14 14 14 16 16 17 16 15 15 17 15 15 12 11 9 10 7 6 5 6 6 6 8 8 8 6 6 5 4 5 5 5 5 5 4
11 13 19 19 18 14 14 6 16 13 13 14 14 15 16 14 13 15 16 15 15 12 12 12 13 14 13 11 11 9 9 7 7 7 9 8 8 8 9 8 7 6 5 5 6 6 7 5 5
9 16 15 14 5 5 14 14 13 15 16 16 16 17 17 17 16 14 13 11 13 11 8 10 12 14 11 10 14 13 12 10 7 8 7 5 5 6 8 9 7 7 7 7 6 6 7 7 6
11 17 4 4 2 3 2 6 6 17 16 20 23 21 19 15 13 13 11 11 11 12 11 11 13 15 15 15 15 15 13 12 10 10 7 8 8 6 8 9 9 8 8 6 6 7 7 7 7
21 15 7 6 8 10 5 9 8 9 7 4 17 20 18 15 15 14 12 10 11 14 11 14 14 15 14 15 15 14 15 10 9 10 8 5 5 8 10 10 11 10 8 7 7 5 6 8 7
11 13 2 5 2 8 8 9 7 6 7 8 12 17 11 6 3 12 10 11 11 11 12 14 15 15 15 15 13 10 9 9 8 10 12 10 10 9 10 11 10 10 10 10 10 8 9 8 8
9 9 5 4 7 6 12 18 9 13 14 14 15 18 13 9 6 6 4 5 5 6 5 4 12 15 14 16 14 12 13 12 12 9 11 12 11 9 9 11 11 11 10 10 10 9 10 10 9
7 10 6 6 3 7 8 11 17 15 16 18 16 15 12 9 7 6 4 3 4 4 6 8 9 9 7 5 12 14 12 13 12 11 11 12 12 12 12 12 12 13 13 13 12 12 12 12 12
6 15 15 8 9 6 7 4 4 7 12 15 16 12 8 7 5 5 4 4 4 4 5 6 7 8 8 8 7 6 6 11 11 10 12 13 13 13 13 14 13 13 13 13 14 14 12 13 14
Wind_Direction
217 183 195 181 213 235 223 231 184 196 188 220 233 181 216 27 10 39 125 135 127 135 129 141 133 127 129 117 125 125 119 117 118 114 107 98 105 108 102 96 92 90 91 91 89 87 88 91 92
183 183 201 217 236 209 224 213 192 194 139 137 144 197 221 89 63 119 134 143 149 132 143 132 132 132 128 122 118 116 114 105 100 100 109 105 98 103 100 96 92 90 87 88 89 91 92 95 98
195 185 171 215 217 229 216 210 171 117 128 162 140 285 50 76 101 120 115 138 148 125 123 114 133 133 126 120 117 116 108 105 99 97 89 98 100 96 94 91 91 90 90 90 93 95 98 98 97
168 201 260 228 210 223 226 192 185 146 143 193 143 121 89 359 122 116 141 146 132 111 108 123 133 127 125 121 118 118 114 114 112 110 96 89 83 72 86 89 85 89 92 94 95 94 99 102 98
196 180 209 212 220 209 238 185 205 166 168 173 196 125 90 68 58 137 140 143 121 124 117 133 132 121 121 118 116 116 118 114 110 105 105 104 106 111 94 99 94 94 96 99 100 99 100 96 97
178 208 207 207 208 212 215 228 194 182 167 144 169 126 98 130 139 151 147 136 121 124 125 129 118 117 116 113 112 112 114 111 109 112 115 115 122 128 124 109 102 100 101 100 101 101 99 94 91
214 194 215 205 199 208 204 204 213 200 164 158 144 145 121 144 142 161 111 128 128 126 129 132 128 117 110 103 95 96 102 108 120 114 111 105 117 118 114 108 103 104 101 101 100 101 97 93 88
221 209 218 210 203 202 182 208 212 202 168 101 164 163 166 149 141 131 154 148 135 139 132 133 134 130 123 114 92 89 101 106 101 99 93 88 94 111 108 103 101 101 102 102 99 99 96 91 85
222 229 216 204 199 191 173 192 208 28 121 173 159 85 124 142 141 145 162 140 143 139 136 137 139 111 107 109 104 95 97 99 103 110 124 133 118 112 112 96 99 99 100 103 103 101 100 93 70
200 212 211 213 197 190 177 185 170 174 151 150 144 109 126 145 150 153 156 151 147 146 146 144 129 136 147 128 120 113 128 128 121 140 155 118 107 97 102 100 92 96 95 99 109 121 141 140 120
197 214 206 212 193 184 165 200 170 188 184 176 167 139 145 152 155 157 158 151 153 145 150 153 123 157 146 135 139 157 127 129 130 115 119 106 121 137 125 135 126 124 132 119 133 165 124 102 102
193 222 216 199 179 206 178 195 171 200 195 191 155 151 152 161 158 168 152 149 154 154 155 147 129 158 135 141 148 138 129 131 127 127 134 132 115 125 133 130 141 151 115 131 116 109 105 105 104
210 198 225 164 191 218 183 185 177 191 106 128 139 153 157 164 159 164 147 147 157 155 151 138 145 133 144 149 135 147 131 144 128 131 132 118 121 128 125 133 131 125 140 134 121 121 122 115 111
189 186 181 209 178 205 182 169 185 119 146 134 153 160 161 160 172 159 161 158 161 160 152 144 159 142 154 136 148 144 151 125 139 131 137 131 129 138 125 121 101 122 133 132 130 129 113 118 123
234 173 181 179 186 194 181 154 202 143 150 150 154 160 162 158 167 169 159 164 172 163 152 153 144 151 143 143 145 149 128 142 136 134 143 138 144 149 138 138 142 130 125 132 120 116 122 125 128
187 155 172 179 178 168 205 178 149 157 154 158 153 159 162 158 166 176 153 154 177 162 151 155 154 161 151 146 147 144 151 146 139 141 143 146 152 151 150 152 136 137 148 151 148 148 152 152 147
173 159 179 160 188 148 202 179 139 167 159 148 165 166 161 156 162 181 161 151 180 162 157 157 160 159 153 152 157 149 154 149 148 149 150 157 155 163 157 157 139 157 149 161 155 149 161 157 144
178 164 173 161 183 179 195 179 146 170 163 154 171 167 161 162 173 170 170 155 183 177 164 163 161 160 156 156 155 152 154 157 159 162 157 160 161 167 159 149 156 157 159 152 160 161 169 159 146
180 171 168 165 166 181 190 152 144 160 175 149 170 173 170 166 168 164 169 167 172 170 184 169 165 169 163 171 170 166 172 162 170 170 163 171 168 177 171 162 161 178 176 174 177 157 160 157 157
197 168 173 155 165 187 182 148 144 170 182 171 169 174 172 173 166 164 171 166 187 167 175 175 175 169 179 181 183 178 175 173 174 175 179 174 173 179 187 182 184 191 198 185 180 169 177 171 192
226 181 163 157 168 167 174 137 155 184 200 168 152 175 174 183 173 171 174 178 183 177 178 181 176 181 189 189 180 178 173 174 180 178 187 187 187 181 198 200 197 193 204 195 186 187 195 193 201
180 173 148 157 165 166 188 177 197 164 182 183 161 181 177 186 189 180 180 187 186 189 187 187 186 188 193 182 183 193 182 189 186 185 190 189 195 189 196 203 207 199 200 201 193 197 206 230 197
171 174 158 174 174 162 196 269 173 167 185 186 181 183 188 183 191 192 191 190 192 200 192 198 193 191 196 186 191 194 204 201 186 187 194 193 195 202 198 200 202 207 204 213 203 198 209 216 233
187 150 148 184 168 175 195 215 165 178 187 184 182 182 187 188 185 203 197 192 189 198 194 201 198 195 196 198 198 202 208 215 199 180 197 189 192 199 207 205 206 209 211 211 206 203 213 217 223
164 145 88 88 149 195 208 205 7 174 181 175 177 176 183 197 169 187 191 196 191 189 207 200 199 200 205 207 206 206 215 215 208 199 205 200 193 191 203 203 208 212 211 204 206 209 214 218 224
171 158 152 144 174 176 137 221 182 97 64 60 167 175 173 179 171 189 195 192 203 193 201 202 205 212 204 212 222 215 209 215 210 203 197 203 201 200 199 201 204 206 197 197 200 203 213 217 223
192 186 135 101 158 177 186 226 141 160 168 170 181 182 162 103 113 185 176 185 201 201 204 215 211 210 210 212 221 231 225 213 211 199 207 196 200 208 211 204 202 205 202 201 199 207 211 210 219
224 149 155 157 156 198 195 209 214 184 187 181 176 190 162 152 137 117 83 49 37 25 4 336 245 222 214 213 214 218 217 218 219 216 211 215 214 211 205 204 206 207 208 209 202 211 219 213 214
192 188 212 191 215 204 199 220 207 198 189 182 186 188 174 173 155 140 126 79 40 31 20 12 5 17 3 293 224 216 218 222 226 224 225 222 221 216 219 218 214 218 214 208 206 217 222 216 221
294 222 209 194 184 220 247 233 351 269 185 178 174 160 155 155 145 134 126 106 80 54 36 27 15 14 5 358 343 339 272 228 227 227 229 226 218 228 227 222 226 224 220 215 215 216 215 216 220